www.pogodaiklimat.ru

Погода и климат >> Архив погоды >> Великобритания >> Рил


ПОГОДА в Риле

  • Прогноз погоды в Риле
  • Монитор погоды в Риле

АРХИВ ПОГОДЫ в Риле

Время (UTC), дата Ветер
(напр.,м/с)
 
Видим.   Явления Облачность Т
(С)
Тd
(С)
f
(%)
Тe
(С)
Тes
(С)
Комфортность P
(гПа)
Po
(гПа)
Тmin
(С)
Tmax
(С)
R
(мм)
R24
(мм)
S
(см)
01 10.07 Ю 4 65 км н/о +15.5 +12.4 82 +14 +14 1019.1 1009.9
02 10.07 ЮЗ 5 65 км н/о +16.1 +12.6 80 +15 +15 1018.8 1009.6
03 10.07 ЮЗ 5 65 км н/о +16.1 +12.8 81 +15 +15 1018.3 1009.1
04 10.07 ЮЗ 5 60 км н/о +16.0 +12.9 82 +15 +15 1018.1 1008.9
05 10.07 ЮЗ 5 45 км н/о +16.1 +13.3 83 +15 +15 1017.9 1008.7
06 10.07 Ю 4 40 км н/о +16.2 +13.6 85 +16 +16 1017.9 1008.7 +15.4
07 10.07 ЮЗ 6-13
{13}
45 км н/о +16.5 +13.2 81 +15 +15 1017.8 1008.6
08 10.07 ЮЗ 5 50 км н/о +17.3 +13.4 78 +17 +17 1017.7 1008.5
09 10.07 ЮЗ 6 60 км н/о +18.5 +12.9 70 +18 +18 1017.6 1008.4
10 10.07 ЮЗ 6 65 км н/о +19.7 +13.5 67 +21 +21 комфорт 1017.3 1008.2
11 10.07 ЮЗ 4 55 км н/о +20.4 +12.9 62 +23 +23 комфорт 1017.0 1008.0
12 10.07 ЮЗ 5 60 км н/о +19.7 +12.5 63 +21 +21 комфорт 1017.0 1007.9
13 10.07 ЮЗ 5 65 км н/о +20.5 +12.9 62 +23 +23 комфорт 1016.7 1007.6
14 10.07 ЮЗ 6 55 км н/о +21.8 +13.3 58 +24 +24 комфорт 1016.5 1007.4
15 10.07 ЮЗ 4 65 км н/о +20.2 +12.5 61 +22 +22 комфорт 1016.1 1007.1
16 10.07 ЮЗ 5 65 км н/о +19.8 +13.4 67 +22 +22 комфорт 1016.0 1007.0
17 10.07 ЮЗ 5 65 км н/о +17.7 +13.5 76 +17 +17 1015.8 1006.6
18 10.07 ЮЗ 6 4600 м н/о +16.6 +13.8 84 +16 +16 1015.2 1006.1 +21.8
19 10.07 ЮЗ 4 70 км н/о +16.6 +12.7 78 +16 +16 1015.1 1005.9
20 10.07 ЮЗ 4 14 км н/о +15.8 +12.6 81 +15 +15 1014.7 1005.5
21 10.07 ЮЗ 5 16 км н/о +15.2 +13.5 90 +14 +14 1014.3 1005.1
22 10.07 ЮЗ 5 50 км н/о +15.7 +13.4 86 +15 +15 1014.5 1005.3
23 10.07 Ю 3 55 км н/о +15.7 +13.4 86 +15 +15 1014.2 1005.0
00 11.07 Ю 3 50 км н/о +15.8 +14.0 89 +15 +15 1013.8 1004.6 1
01 11.07 Ю 3 24 км н/о +16.1 +14.5 90 +16 +16 1013.2 1004.1
02 11.07 ЮЗ 3 40 км н/о +16.4 +14.6 89 +16 +16 1012.8 1003.6
03 11.07 ЮЗ 4 35 км н/о +16.3 +14.3 88 +16 +16 1012.4 1003.3
04 11.07 Ю 3 50 км н/о +15.8 +13.3 85 +15 +15 1012.1 1002.9
05 11.07 Ю 4 40 км н/о +15.6 +13.4 87 +15 +15 1011.8 1002.7
06 11.07 Ю 3 40 км н/о +16.4 +13.9 85 +16 +16 1011.6 1002.4 +15.2 1
07 11.07 ЮЗ 3 60 км н/о +17.6 +14.1 80 +18 +18 1011.5 1002.4
08 11.07 ЮЗ 4 65 км н/о +17.9 +14.3 79 +18 +18 1011.3 1002.2
09 11.07 ЮЗ 5 70 км н/о +19.7 +15.6 77 +22 +22 комфорт 1011.6 1002.5
10 11.07 З 2 50 км н/о +19.4 +15.7 79 +22 +22 комфорт 1011.7 1002.6
11 11.07 ЮЗ 4 55 км н/о +20.5 +16.0 75 +24 +24 комфорт 1011.6 1002.6
12 11.07 ЮЗ 4 70 км н/о +21.2 +16.2 73 +25 +25 комфорт 1011.5 1002.5
13 11.07 ЮЗ 6 60 км н/о +18.9 +14.8 77 +20 +20 1011.7 1002.7
14 11.07 ЮЗ 4 >70 км н/о +20.8 +16.0 74 +24 +24 комфорт 1011.2 1002.2
15 11.07 ЮЗ 5 45 км н/о +19.5 +15.2 76 +21 +21 комфорт 1011.5 1002.5
16 11.07 ЮЗ 4 30 км н/о +19.2 +15.8 81 +21 +21 комфорт 1011.7 1002.6
17 11.07 СЗ 2 16 км н/о +18.2 +16.3 89 +19 +19 1011.8 1002.7
18 11.07 СЗ 4 1600 м н/о +16.2 +15.5 96 +16 +16 1012.0 1002.8 +21.7 7
19 11.07 З 3 6000 м н/о +16.1 +15.7 97 +16 +16 1012.0 1002.8
20 11.07 З 2 15 км н/о +16.0 +15.5 97 +16 +16 1011.9 1002.7
21 11.07 ЮЗ 2 28 км н/о +16.0 +15.0 94 +16 +16 1012.2 1003.1
22 11.07 С 1 40 км н/о +15.1 +14.4 96 +16 +16 1012.4 1003.2
23 11.07 ЮЗ 3 35 км н/о +15.0 +14.2 95 +14 +14 1012.5 1003.3
00 12.07 ЮЗ 3 27 км н/о +15.3 +13.2 87 +15 +15 1012.5 1003.3 0.4
01 12.07 З 4 45 км н/о +16.1 +13.7 86 +15 +15 1012.7 1003.6
02 12.07 З 4 40 км н/о +15.7 +13.6 87 +15 +15 1012.9 1003.7
03 12.07 З 4 28 км н/о +15.4 +13.8 90 +14 +14 1013.3 1004.1
04 12.07 З 4 18 км н/о +15.2 +13.8 91 +14 +14 1013.7 1004.5
05 12.07 З 4 19 км н/о +15.3 +13.7 90 +14 +14 1014.3 1005.1
06 12.07 З 5 30 км н/о +15.3 +13.4 88 +14 +14 1014.8 1005.6 +13.8 0.4
07 12.07 З 6 35 км н/о +15.5 +13.4 87 +14 +14 1015.4 1006.2
08 12.07 З 5 35 км н/о +15.7 +13.8 88 +14 +14 1015.9 1006.7
09 12.07 З 7 35 км н/о +16.3 +14.0 86 +15 +15 1016.3 1007.1
10 12.07 З 7 30 км н/о +15.6 +13.8 89 +14 +14 1017.0 1007.8
11 12.07 З 7 30 км н/о +15.2 +14.1 93 +13 +13 1017.5 1008.3
12 12.07 З 6 35 км н/о +15.6 +13.4 87 +14 +14 1018.3 1009.0
13 12.07 З 6 35 км н/о +17.0 +14.2 84 +16 +16 1018.6 1009.4
14 12.07 СЗ 6 50 км н/о +17.4 +13.7 79 +17 +17 1018.9 1009.7
15 12.07 З 7 65 км н/о +18.1 +13.5 74 +17 +17 1019.2 1010.1
16 12.07 З 5 65 км н/о +17.7 +13.3 75 +17 +17 1019.3 1010.2
17 12.07 З 6 65 км н/о +17.1 +12.8 76 +16 +16 1019.8 1010.6
18 12.07 СЗ 6 45 км н/о +16.3 +13.7 85 +15 +15 1020.4 1011.2 +19.1
19 12.07 З 5 50 км н/о +16.0 +13.4 85 +15 +15 1020.7 1011.5
20 12.07 З 5 40 км н/о +15.2 +13.5 90 +14 +14 1021.2 1011.9
21 12.07 З 4 35 км н/о +14.6 +13.7 94 +13 +13 1021.7 1012.4
22 12.07 З 4 50 км н/о +15.0 +12.6 86 +14 +14 1021.9 1012.6
23 12.07 З 4 5000 м н/о +14.8 +13.1 90 +14 +14 1022.3 1013.0
00 13.07 З 4 27 км н/о +14.4 +13.5 94 +13 +13 1022.5 1013.2
01 13.07 СЗ 4 23 км н/о +14.3 +13.3 94 +13 +13 1022.3 1013.0
02 13.07 СЗ 4 30 км н/о +14.4 +12.9 91 +13 +13 1022.5 1013.2
03 13.07 З 5 30 км н/о +14.5 +13.0 91 +13 +13 1022.5 1013.2
04 13.07 СЗ 5 35 км н/о +14.3 +12.5 89 +13 +13 1022.8 1013.5
05 13.07 СЗ 5 12 км н/о +13.8 +12.9 94 +12 +12 1023.1 1013.8
06 13.07 СЗ 4 25 км н/о +13.9 +12.9 94 +12 +12 1023.3 1013.9 +13.7
07 13.07 СЗ 5 35 км н/о +14.1 +12.7 91 +12 +12 1023.7 1014.4
08 13.07 СЗ 5 30 км н/о +14.5 +12.9 90 +13 +13 1024.1 1014.8
09 13.07 СЗ 5 20 км н/о +14.3 +12.8 91 +13 +13 1024.4 1015.1
10 13.07 СЗ 5 12 км н/о +14.3 +13.4 94 +13 +13 1024.8 1015.5
11 13.07 СЗ 5 28 км н/о +15.0 +13.1 88 +14 +14 1025.0 1015.7
12 13.07 СЗ 4 23 км н/о +14.9 +13.0 88 +14 +14 1025.0 1015.7
13 13.07 СЗ 5 25 км н/о +15.3 +13.1 87 +14 +14 1025.0 1015.7
14 13.07 СЗ 4 20 км н/о +15.1 +13.0 87 +14 +14 1025.1 1015.8
15 13.07 СЗ 5 24 км н/о +15.5 +12.8 84 +14 +14 1025.2 1015.9
16 13.07 З 5 29 км н/о +16.1 +12.6 80 +15 +15 1025.3 1016.0
17 13.07 СЗ 5 40 км н/о +16.0 +11.3 74 +15 +15 1025.1 1015.8
18 13.07 СЗ 4 40 км н/о +16.4 +11.6 73 +16 +16 1025.1 1015.9 +16.7
19 13.07 З 4 40 км н/о +15.6 +10.0 69 +15 +15 1025.1 1015.8
20 13.07 З 3 35 км н/о +14.3 +10.9 80 +13 +13 1025.3 1015.9
21 13.07 З 3 35 км н/о +13.2 +10.8 85 +12 +12 1025.3 1016.0
22 13.07 СЗ 4 35 км н/о +13.8 +11.7 87 +12 +12 1025.4 1016.0
23 13.07 СЗ 4 30 км н/о +13.6 +11.4 87 +12 +12 1025.2 1015.9
00 14.07 З 3 17 км н/о +13.6 +11.4 87 +12 +12 1025.3 1015.9
01 14.07 З 3 30 км н/о +13.5 +11.4 87 +12 +12 1025.1 1015.8
02 14.07 СЗ 2 29 км н/о +13.5 +11.6 88 +13 +13 1024.9 1015.6
03 14.07 З 2 25 км н/о +13.5 +11.7 89 +13 +13 1024.5 1015.2
04 14.07 З 2 30 км н/о +13.5 +11.7 89 +13 +13 1024.3 1015.0
05 14.07 ЮЗ 2 26 км н/о +13.4 +11.6 89 +13 +13 1024.4 1015.0
06 14.07 Ю 1 29 км н/о +13.9 +11.8 87 +14 +14 1024.6 1015.3 +13.2
07 14.07 ЮЗ 2 28 км н/о +14.2 +12.0 87 +14 +14 1024.7 1015.4
08 14.07 Ю 1 28 км н/о +14.8 +11.9 83 +15 +15 1024.8 1015.5
09 14.07 В 1 28 км н/о +15.3 +12.0 81 +16 +16 1025.0 1015.7
10 14.07 СВ 1 27 км н/о +16.9 +13.4 80 +18 +18 1025.0 1015.7
11 14.07 СВ 2 27 км н/о +17.2 +13.0 76 +18 +18 1025.0 1015.8
12 14.07 С 2 20 км н/о +17.1 +14.4 84 +18 +18 1025.1 1015.9
13 14.07 СЗ 1 19 км н/о +17.5 +13.5 77 +19 +19 1025.0 1015.8
14 14.07 В 2 30 км н/о +19.4 +13.4 68 +22 +22 комфорт 1024.7 1015.5
15 14.07 ЮВ 2 35 км н/о +20.3 +13.5 65 +23 +23 комфорт 1024.4 1015.3
16 14.07 В 2 28 км н/о +20.7 +14.9 69 +24 +24 комфорт 1024.3 1015.1
17 14.07 СВ 3 22 км н/о +19.7 +14.5 72 +22 +22 комфорт 1023.9 1014.7
18 14.07 С 3 25 км н/о +20.0 +15.4 75 +23 +23 комфорт 1023.9 1014.8 +21.3
19 14.07 СВ 2 22 км н/о +18.0 +14.3 79 +19 +19 1023.8 1014.6
20 14.07 СВ 1 28 км н/о +17.7 +13.7 77 +19 +19 1023.8 1014.6
21 14.07 Ю 1 16 км н/о +14.6 +12.7 88 +15 +15 1023.9 1014.6
22 14.07 Ю 2 15 км н/о +13.6 +12.6 94 +13 +13 1023.9 1014.6
23 14.07 Ю 2 11 км н/о +13.3 +12.3 94 +13 +13 1023.8 1014.5
00 15.07 Ю 3 29 км н/о +13.7 +12.3 91 +13 +13 1023.7 1014.4
01 15.07 Ю 2 21 км н/о +13.4 +11.8 90 +13 +13 1023.6 1014.3
02 15.07 Ю 3 27 км н/о +13.8 +11.5 86 +13 +13 1023.5 1014.1
03 15.07 Ю 2 23 км н/о +13.4 +11.1 86 +13 +13 1023.0 1013.7
04 15.07 Ю 2 22 км н/о +13.6 +11.3 86 +13 +13 1023.0 1013.6
05 15.07 ЮВ 3 23 км н/о +13.7 +11.6 87 +13 +13 1022.8 1013.5
06 15.07 Ю 3 24 км н/о +15.5 +12.7 83 +15 +15 1022.5 1013.3 +12.9
07 15.07 Ю 2 23 км н/о +15.9 +13.0 83 +16 +16 1022.6 1013.4
08 15.07 ЮВ 2 30 км н/о +19.2 +14.6 75 +21 +21 комфорт 1022.5 1013.3
09 15.07 Ю 2 45 км н/о +21.0 +14.2 65 +25 +25 комфорт 1022.3 1013.2
10 15.07 СЗ 2 35 км н/о +20.9 +14.5 67 +25 +25 комфорт 1022.2 1013.1
11 15.07 С 3 35 км н/о +20.9 +12.8 60 +24 +24 комфорт 1022.3 1013.2
12 15.07 СЗ 2 18 км н/о +19.6 +12.9 65 +22 +22 комфорт 1022.6 1013.4
13 15.07 С 3 40 км н/о +21.8 +13.4 59 +25 +25 комфорт 1022.1 1013.0
14 15.07 С 3 45 км н/о +22.5 +13.8 58 +26 +26 жарко 1021.8 1012.8
15 15.07 С 2 35 км н/о +22.6 +13.0 55 +26 +26 жарко 1021.5 1012.5
16 15.07 С 3 35 км н/о +22.0 +13.9 60 +25 +25 комфорт 1021.3 1012.3
17 15.07 С 2 35 км н/о +22.0 +13.6 59 +25 +25 комфорт 1020.9 1011.9
18 15.07 СЗ 2 35 км н/о +20.9 +13.1 61 +24 +24 комфорт 1021.0 1012.0 +22.9
19 15.07 СЗ 2 30 км н/о +19.7 +13.3 67 +22 +22 комфорт 1021.0 1011.9
20 15.07 СЗ 2 30 км н/о +18.8 +14.0 74 +21 +21 комфорт 1021.1 1011.9
21 15.07 З 1 30 км н/о +16.8 +13.4 80 +18 +18 1021.1 1011.9
22 15.07 Ю 2 28 км н/о +15.9 +12.9 82 +16 +16 1021.2 1011.9
23 15.07 Ю 2 21 км н/о +15.3 +12.8 85 +15 +15 1020.8 1011.5
00 16.07 ЮЗ 1 29 км н/о +16.1 +13.7 86 +17 +17 1020.9 1011.6
01 16.07 Ю 2 26 км н/о +15.3 +13.1 87 +15 +15 1020.4 1011.2
02 16.07 Ю 1 24 км н/о +15.5 +13.0 85 +16 +16 1020.3 1011.1
03 16.07 Ю 1 20 км н/о +14.9 +12.7 87 +15 +15 1020.1 1010.8
04 16.07 ЮЗ 2 25 км н/о +15.5 +12.6 83 +16 +16 1020.1 1010.8
05 16.07 Ю 2 28 км н/о +15.8 +12.4 80 +16 +16 1020.0 1010.8
06 16.07 Ю 1 27 км н/о +15.9 +12.9 82 +17 +17 1020.2 1011.0 +14.8
07 16.07 Ю 1 27 км н/о +16.6 +13.2 80 +17 +17 1020.2 1011.0
08 16.07 ЮВ 2 30 км н/о +18.6 +13.8 74 +20 +20 1020.0 1010.9
09 16.07 Ю 2 35 км н/о +20.1 +13.3 65 +23 +23 комфорт 1019.9 1010.8
10 16.07 ЮЗ 2 4200 м н/о +21.4 +12.6 57 +24 +24 комфорт 1019.6 1010.5
11 16.07 СЗ 2 30 км н/о +21.7 +13.0 58 +24 +24 комфорт 1019.2 1010.2
12 16.07 СЗ 3 40 км н/о +21.0 +11.8 56 +24 +24 комфорт 1019.2 1010.1
13 16.07 СЗ 2 40 км н/о +19.7 +12.6 64 +22 +22 комфорт 1019.2 1010.1

 

Местоположение метеостанции Рил (Великобритания): широта 53.25 долгота -3.50 высота над уровнем моря 76 м.

В архиве по умолчанию представлена погода в Риле за последнюю неделю. Архивные данные за месяц целиком и за предыдущие месяцы, начиная с января 2011 года, Вы можете получить, выбрав интересующий диапазон дат из раскрывающегося списка и нажав кнопку "Ввод!".


*Определитесь, кто Вы:
робот инопланетянин человек

Внимание! Время в таблицах - всемирное. Для получения местного времени необходимо прибавить поправку, которая равна 0 ч.

Смотрите также архив погоды в соседних городах и на ближайших метеорологических станциях:

Погода в Кейпл Кериг (Великобритания) (33 км)
Погода в Гавардене (Великобритания) (36 км)
Погода в Бала (Великобритания) (39 км)
Погода в Кросби (Великобритания) (40 км)
Погода на Озере Вирнви (Великобритания) (56 км)
Погода в Моне (Великобритания) (58 км)
Погода в Блэкпуле (Великобритания) (66 км)
Погода в Вэлли (Великобритания) (69 км)
Погода в Шобери (Великобритания) (75 км)
Погода на Ростерн Мир (Великобритания) (76 км)

Пояснения к столбцам:

Ветер - указаны скорость ветра в м/с - средняя за 10 мин, порывы в срок и между сроками (в фигурных скобках) и направление, откуда дует ветер: С - северный, СВ - северо-восточный, В - восточный, ЮВ - юго-восточный, Ю - южный, ЮЗ - юго-западный, З - западный, СЗ - северо-западный.
Видимость - горизонтальная дальность видимости в метрах или километрах. При видимости от 1 до 10 км при отсутствии осадков обычно наблюдается дымка, при ухудшении видимости до 1 км и менее - туман. В сухую погоду видимость может ухудшаться дымом, пылью или мглою.
Явления - указаны атмосферные явления, наблюдавшиеся в срок или в последний час перед сроком; фигурными скобками обозначены явления, наблюдавшиеся между сроками (за 1-3 часа до срока); квадратными скобками обозначены град или гололедные отложения с указанием их диаметра в мм.
Облачность - указаны через наклонную черту общая и нижняя облачность в баллах и высота нижней границы облаков в метрах; квадратными скобками обозначены формы облаков: Ci - перистые, Cs - перисто-слоистые, Cc - перисто-кучевые, Ac - высококучевые, As - высокослоистые, Sc - слоисто-кучевые, Ns - слоисто-дождевые, Cu - кучевые, Cb - кучево-дождевые. Подробнее классификацию облаков см. в Атласе облаков (PDF).
T - Температура воздуха - температура, измеренная на высоте 2 м над землей.
Td - Температура точки росы - температура, при понижении до которой содержащийся в воздухе водяной пар достигнет насыщения.
f - Относительная влажность воздуха - влажноcть воздуха, измеренная на высоте 2 м над землей.
Te - Эффективная температура - температура, которую ощущает одетый по сезону человек в тени. Характеристика душности погоды. При расчете учитывается влияние влажности воздуха и скорости ветра на теплоощущения человека.
Tes - Эффективная температура на солнце - температура, которую ощущает человек, с поправкой на солнечный нагрев. Характеристика знойности погоды. Зависит от высоты солнца над горизонтом, облачности и скорости ветра. Ночью, в пасмурную погоду, а также при ветре 12 м/с и более поправка равна нулю.
P - Атмосферное давление - приведенное к уровню моря атмосферное давление.
Po - Атмосферное давление - измеренное на уровне метеостанции атмосферное давление.
Tmin - Минимальная температура - минимум температуры воздуха на высоте 2 м над землей.
Tmax - Максимальная температура - максимум температуры воздуха на высоте 2 м над землей.
R - Количество осадков - Количество выпавших осадков за период времени, мм. При наведении курсора мыши на число - период времени, за который выпало указанное количество осадков.
R24 - Количество осадков - Количество выпавших осадков за 24 часа, мм.
S - Снежный покров - Высота снежного покрова, см. При наведении курсора мыши на число - состояние снежного покрова и степень покрытия местности в баллах.